Location: Newark
(46.8167°N, 54.2000°W)
Time: 02:54:01
(UTC+00:00)

N. Korean satellite - Visible Passes

Search period start: 23 October 2019 00:00
Search period end: 02 November 2019 00:00
Orbit: 455 x 508 km, 97.2° (Epoch: 22 October)

Date Brightness Start Highest point End Pass type
(mag) Time Alt. Az. Time Alt. Az. Time Alt. Az.
24 Oct 7.5 09:23:13 10° NNE 09:26:49 56° E 09:30:26 10° S visible
24 Oct 9.8 21:35:53 10° SW 21:38:18 18° W 21:40:47 10° NW visible
25 Oct 9.0 08:58:13 10° NE 09:01:26 28° E 09:04:38 10° SSE visible
25 Oct 8.4 21:09:39 10° SSW 21:12:50 35° W 21:16:05 10° NNW visible
26 Oct 10.1 08:33:45 10° NE 08:35:56 15° E 08:38:08 10° SE visible
27 Oct 6.6 09:40:36 10° NNE 09:44:17 88° WNW 09:47:59 10° SSW visible
27 Oct 10.3 21:54:42 10° WSW 21:55:54 11° W 21:57:06 10° WNW visible
28 Oct 8.0 09:15:23 10° NNE 09:18:56 45° E 09:22:30 10° S visible
28 Oct 9.4 21:27:35 10° SSW 21:30:21 22° W 21:33:09 10° NW visible
29 Oct 9.4 08:50:29 10° NE 08:53:30 23° E 08:56:31 10° SSE visible
29 Oct 7.9 21:01:33 10° S 21:04:53 44° W 21:08:17 10° NNW visible
30 Oct 10.3 08:26:19 10° ENE 08:27:58 12° E 08:29:37 10° ESE visible
31 Oct 6.9 09:32:40 10° NNE 09:36:22 75° E 09:40:05 10° S visible
31 Oct 10.0 21:45:56 10° SW 21:47:53 14° W 21:49:51 10° WNW visible
01 Nov 8.4 09:07:32 10° NNE 09:10:59 36° E 09:14:28 10° SSE visible
01 Nov 9.0 21:19:20 10° SSW 21:22:20 27° W 21:25:26 10° NW visible
